Weather History for KGNR - February, 2013

Change the Weather History Date:

Saturday, February 9, 2013

  Actual Average (KMLT) Record (KMLT)
Temperature  
Mean Temperature 5 °F 16 °F  
Max Temperature 9 °F 26 °F 48 °F (1925)
Min Temperature 1 °F 6 °F -25 °F (1918)
Degree Days  
Heating Degree Days 60 49  
Month to date heating degree days 447  
Since 1 July heating degree days 5193  
Cooling Degree Days 0 0  
Month to date cooling degree days 0  
Year to date cooling degree days 0  
Moisture  
Dew Point 1 °F    
Average Humidity 81    
Maximum Humidity 84    
Minimum Humidity 73    
Precipitation  
Precipitation 0.38 in 0.07 in 1.07 in (1958)
Month to date precipitation 0.54  
Year to date precipitation 3.47  
Sea Level Pressure  
Sea Level Pressure 29.99 in    
Wind  
Wind Speed 18 mph (NNW)    
Max Wind Speed 30 mph    
Max Gust Speed 39 mph    
T = Trace of Precipitation, MM = Missing Value Source: NWS Daily Summary

Daily Weather History Graph

Daily Weather History Graph

Search for Another Location

Airport or City:

Trip Planner

Search our weather history database for the weather conditions in past years. The results will help you decide how hot, cold, wet, or windy it might be!

Date:

Astronomy

Feb. 09, 2013 Rise Set
Actual Time 6:48 AM EST 4:57 PM EST
Civil Twilight 6:17 AM EST 5:28 PM EST
Nautical Twilight 5:42 AM EST 6:03 PM EST
Astronomical Twilight 5:08 AM EST 6:37 PM EST
Moon 5:57 AM EST (2/9) 4:37 PM EST (2/9)
Length of Visible Light 11h 10m
Length of Day
10h 08m
Waning Crescent, 0% of the Moon is Illuminated
Feb 9
Waning Crescent
Feb 10
New
Feb 17
First Quarter
Feb 25
Full
Mar 4
Last Quarter

Hourly Weather History & Observations

Time (EST) Temp. Windchill Dew Point Humidity Pressure Visibility Wind Dir Wind Speed Gust Speed Precip Events Conditions
12:56 AM 6.1 °F -10.2 °F 1.9 °F 83% 30.04 in - North 12.7 mph - 0.02 in   Unknown
1:56 AM 5.0 °F -8.1 °F 1.0 °F 84% 30.01 in - North 8.1 mph - 0.02 in   Unknown
2:56 AM 3.0 °F -16.1 °F -0.9 °F 84% 29.95 in - North 16.1 mph 23.0 mph 0.02 in   Unknown
3:56 AM 3.0 °F -16.1 °F -2.0 °F 80% 29.95 in - North 16.1 mph 23.0 mph 0.01 in   Unknown
4:56 AM 3.0 °F -15.5 °F -2.0 °F 80% 29.95 in - North 15.0 mph 24.2 mph 0.02 in   Unknown
5:56 AM 1.9 °F -15.5 °F -2.0 °F 83% 29.95 in - NNW 12.7 mph 23.0 mph 0.03 in   Unknown
6:56 AM 1.9 °F -17.5 °F -2.9 °F 80% 29.93 in - North 16.1 mph 27.6 mph 0.03 in   Unknown
7:56 AM 3.0 °F -20.6 °F -2.0 °F 80% 29.90 in - North 26.5 mph 39.1 mph 0.03 in   Unknown
8:56 AM 3.9 °F -20.5 °F -0.9 °F 80% 29.90 in - North 29.9 mph 38.0 mph 0.01 in   Unknown
9:56 AM 3.9 °F -19.0 °F -0.0 °F 84% 29.91 in - North 25.3 mph 36.8 mph 0.03 in   Unknown
10:56 AM 5.0 °F -17.1 °F 1.0 °F 84% 29.92 in - North 24.2 mph 36.8 mph 0.04 in   Unknown
11:56 AM 6.1 °F -14.8 °F 1.0 °F 80% 29.92 in - North 21.9 mph 33.4 mph 0.02 in   Unknown
12:56 PM 6.1 °F -15.7 °F 1.9 °F 83% 29.92 in - North 24.2 mph 39.1 mph 0.03 in   Unknown
1:56 PM 6.1 °F -15.2 °F 1.9 °F 83% 29.93 in - North 23.0 mph 38.0 mph 0.01 in   Unknown
2:56 PM 7.0 °F -13.1 °F 3.0 °F 84% 29.95 in - NNW 20.7 mph 38.0 mph 0.02 in   Unknown
3:56 PM 8.1 °F -13.4 °F 3.9 °F 83% 29.97 in - NNW 25.3 mph 36.8 mph 0.01 in   Unknown
4:56 PM 9.0 °F -11.8 °F 3.9 °F 80% 29.99 in - NNW 24.2 mph 38.0 mph 0.02 in   Unknown
5:56 PM 9.0 °F -10.5 °F 3.9 °F 80% 30.03 in - NNW 20.7 mph 32.2 mph N/A   Unknown
6:56 PM 8.1 °F -10.7 °F 3.9 °F 83% 30.07 in - NNW 18.4 mph 29.9 mph 0.01 in   Unknown
7:56 PM 8.1 °F -10.7 °F 3.0 °F 80% 30.09 in - NNW 18.4 mph 32.2 mph N/A   Unknown
8:56 PM 8.1 °F -11.2 °F 3.0 °F 80% 30.09 in - NNW 19.6 mph 27.6 mph N/A   Unknown
9:56 PM 9.0 °F -7.9 °F 3.9 °F 80% 30.09 in - NNW 15.0 mph 25.3 mph N/A   Unknown
10:56 PM 8.1 °F -11.7 °F 1.9 °F 76% 30.09 in - NNW 20.7 mph 28.8 mph N/A   Unknown
11:56 PM 8.1 °F -12.2 °F 1.0 °F 73% 30.11 in - NNW 21.9 mph 36.8 mph N/A   Unknown